DateTimeUTC,F1_A11,F1_S11,BsB_S11,BsG_S11,BsR_S11,BbsB_S11,BbsG_S11,BbsR_S11,BaB_A11,BaG_A11,BaR_A11,Tu_S11,T_S11,Uu_S11,U_S11,P_S11,T1_A11
2021-10-18T06:00:00Z,00000200,21000000,,,,,,,-000.19,-000.30,-000.09,16.8,24.0,,00.0,0670.0,30.9
2021-10-18T06:01:00Z,00000200,21000000,,,,,,,0000.07,-000.31,-000.02,16.8,24.0,,00.0,0670.0,30.9
2021-10-18T06:02:00Z,00000200,21000000,,,,,,,0000.06,0000.26,-000.19,16.8,24.0,,00.0,0670.0,30.9
2021-10-18T06:03:00Z,00000200,61000000,,,,,,,0000.04,0000.45,0000.41,16.8,24.0,,00.0,0670.0,30.9
2021-10-18T06:04:00Z,00000200,41000000,0001.17,0000.94,0000.78,0001.05,0000.20,-000.10,0000.33,-000.27,0000.33,17.0,23.8,,00.0,0671.0,30.9
2021-10-18T06:05:00Z,00000200,01000000,0002.23,0001.30,0000.52,-000.13,0000.30,-000.08,-000.07,0000.22,0000.13,17.1,23.8,,00.0,0671.0,30.9
2021-10-18T06:06:00Z,00000200,01000000,0002.16,0001.30,0000.55,0000.36,0000.63,0000.46,0000.61,0000.31,0000.10,17.1,23.8,,00.0,0671.0,30.9
2021-10-18T06:07:00Z,00000200,01000000,0001.27,0001.34,0000.72,-000.12,0000.26,0000.28,0000.17,0000.48,0000.23,17.2,23.8,,00.0,0671.0,30.9
2021-10-18T06:08:00Z,00000200,01000000,0001.25,0001.20,0000.81,0000.65,0000.29,0000.22,0000.28,0000.14,-000.05,17.2,23.8,,00.0,0671.0,30.9
2021-10-18T06:09:00Z,00000200,01000000,0001.41,0000.82,0000.79,0000.28,0000.22,0000.21,0000.16,0000.21,0000.34,17.2,23.8,,00.0,0671.0,30.9
2021-10-18T06:10:00Z,00000200,01000000,0001.15,0000.73,0000.61,0000.22,0000.14,-000.02,0000.66,0000.36,0000.44,17.2,23.8,,00.0,0671.0,30.9
2021-10-18T06:11:00Z,00000200,01000000,0001.75,0001.48,0000.81,0000.06,0000.62,-000.14,0003.97,0003.86,0002.55,17.2,23.8,,00.0,0671.1,30.9
2021-10-18T06:12:00Z,00000200,01000000,0002.64,0002.51,0001.25,-000.31,0000.43,0000.26,0016.44,0015.41,0012.22,17.1,23.8,,00.0,0671.1,30.9
2021-10-18T06:13:00Z,00000200,01000000,0004.69,0003.05,0002.24,0001.01,0000.78,0000.66,0040.29,0037.36,0030.15,17.0,23.7,,00.0,0671.1,30.9
2021-10-18T06:14:00Z,00000200,01000000,0004.18,0003.10,0001.88,0000.99,0001.23,-000.16,0035.81,0032.96,0026.37,16.9,23.7,,00.0,0671.1,30.9
2021-10-18T06:15:00Z,00000200,01000000,0005.02,0003.02,0001.83,0001.18,0001.04,0000.24,0037.28,0034.70,0028.06,16.8,23.6,,00.0,0671.1,30.9
2021-10-18T06:16:00Z,00000200,01000000,0004.48,0002.85,0002.15,0000.32,0000.57,0000.23,0034.33,0031.99,0025.45,16.8,23.6,,00.0,0671.2,30.8
2021-10-18T06:17:00Z,00000200,01000000,0004.65,0003.48,0002.03,0001.24,0000.78,0000.38,0045.03,0041.40,0033.41,16.8,23.6,,00.0,0671.2,30.9
2021-10-18T06:18:00Z,00000200,01000000,0004.79,0003.80,0002.40,0001.18,0001.09,0000.47,0045.29,0042.30,0034.09,16.9,23.6,,00.0,0671.2,30.9
2021-10-18T06:19:00Z,00000200,01000000,0004.41,0002.69,0002.01,0000.96,0000.75,0000.65,0036.72,0034.24,0027.44,16.9,23.6,,00.0,0671.2,30.9
2021-10-18T06:20:00Z,00000200,01000000,0004.91,0002.86,0001.70,0000.76,0000.81,0000.28,0033.66,0031.03,0024.96,16.9,23.6,,00.0,0671.2,30.9
2021-10-18T06:21:00Z,00000200,01000000,0004.22,0002.76,0002.09,0000.28,0000.68,0000.13,0030.39,0028.07,0022.61,16.9,23.6,,00.0,0671.2,30.9
2021-10-18T06:22:00Z,00000200,01000000,0002.92,0002.87,0001.57,0000.63,0000.27,0000.51,0027.72,0025.67,0020.73,17.0,23.6,,00.0,0671.2,30.9
2021-10-18T06:23:00Z,00000200,01000000,0003.65,0002.48,0001.70,0000.79,0000.60,0000.21,0028.56,0026.47,0021.47,17.0,23.6,,00.0,0671.2,30.9
2021-10-18T06:24:00Z,00000200,01000000,0003.51,0002.54,0001.77,0001.10,0000.44,0000.24,0028.84,0027.02,0021.61,17.0,23.6,,00.0,0671.2,30.9
2021-10-18T06:25:00Z,00000200,01000000,0004.20,0003.21,0001.76,0000.45,0000.66,0000.09,0035.77,0032.88,0026.25,17.1,23.7,,00.0,0671.2,30.9
2021-10-18T06:26:00Z,00000200,01000000,0003.98,0003.03,0001.90,0000.85,0000.81,0000.22,0035.73,0033.04,0026.82,17.1,23.7,,00.0,0671.2,30.9
2021-10-18T06:27:00Z,00000200,01000000,0004.02,0003.84,0002.51,0001.01,0000.94,0000.60,0042.30,0039.33,0031.80,17.1,23.7,,00.0,0671.2,30.9
2021-10-18T06:28:00Z,00000200,01000000,0006.06,0004.14,0002.53,0000.82,0000.74,0000.31,0054.32,0050.37,0040.04,17.1,23.7,,00.0,0671.2,30.9
2021-10-18T06:29:00Z,00000200,01000000,0005.79,0004.25,0002.65,0001.82,0000.81,0000.28,0057.65,0053.82,0043.34,17.1,23.7,,00.0,0671.2,30.9
2021-10-18T06:30:00Z,00000200,01000000,0004.54,0003.15,0002.00,0000.86,0000.66,0000.37,0038.06,0035.29,0028.50,17.1,23.7,,00.0,0671.2,30.9
2021-10-18T06:31:00Z,00000200,01000000,0004.20,0003.49,0002.01,0000.99,0001.08,-000.05,0040.29,0037.38,0030.16,17.1,23.7,,00.0,0671.2,30.9
2021-10-18T06:32:00Z,00000200,01000000,0003.05,0002.85,0002.05,0000.47,0000.84,0000.43,0032.25,0029.74,0024.07,17.1,23.6,,00.0,0671.2,30.9
2021-10-18T06:33:00Z,00000200,01000000,0002.84,0002.54,0001.20,0000.14,0000.36,0000.18,0021.04,0019.66,0015.63,17.1,23.7,,00.0,0671.3,30.9
2021-10-18T06:34:00Z,00000200,01000000,0003.54,0002.22,0001.12,0000.10,0000.36,-000.08,0017.92,0016.93,0013.93,17.1,23.7,,00.0,0671.3,30.9
2021-10-18T06:35:00Z,00000200,01000000,0002.26,0001.62,0000.76,0000.84,0000.31,-000.15,0012.76,0011.43,0008.88,17.1,23.7,,00.0,0671.3,30.9
2021-10-18T06:36:00Z,00000200,01000000,0001.73,0001.88,0000.78,0000.39,0000.20,-000.11,0011.57,0011.19,0009.03,17.1,23.7,,00.0,0671.3,31.0
2021-10-18T06:37:00Z,00000200,01000000,0001.65,0001.14,0000.60,0000.37,0000.46,0000.17,0005.79,0005.59,0004.58,17.2,23.7,,00.0,0671.3,30.9
2021-10-18T06:38:00Z,00000200,01000000,0001.99,0001.48,0001.04,0000.62,0000.56,0000.15,0008.97,0008.03,0006.37,17.2,23.7,,00.0,0671.3,30.9
2021-10-18T06:39:00Z,00000200,01000000,0001.83,0001.39,0000.75,0000.66,0000.30,-000.32,0007.14,0006.43,0005.32,17.2,23.7,,00.0,0671.3,30.9
2021-10-18T06:40:00Z,00000200,01000000,0002.18,0001.76,0001.14,0000.64,0000.40,0000.08,0010.11,0009.38,0007.51,17.2,23.7,,00.0,0671.3,30.9
2021-10-18T06:41:00Z,00000200,01000000,0003.47,0002.60,0001.31,0001.01,0000.74,0000.10,0022.15,0020.42,0016.63,17.2,23.8,,00.0,0671.3,31.0
2021-10-18T06:42:00Z,00000200,01000000,0004.19,0002.54,0001.68,0000.89,0000.81,0000.34,0033.20,0031.00,0024.83,17.2,23.8,,00.0,0671.3,30.9
2021-10-18T06:43:00Z,00000200,01000000,0005.79,0004.31,0002.51,0000.99,0001.26,0000.45,0048.85,0045.48,0036.29,17.2,23.8,,00.0,0671.3,30.9
2021-10-18T06:44:00Z,00000200,01000000,0006.18,0003.97,0002.39,0000.76,0001.49,-000.07,0054.06,0049.84,0040.83,17.1,23.7,,00.0,0671.3,30.9
2021-10-18T06:45:00Z,00000200,01000000,0005.81,0003.46,0002.21,0001.06,0000.79,0000.41,0048.99,0045.68,0036.48,17.0,23.7,,00.0,0671.3,30.9
2021-10-18T06:46:00Z,00000200,01000000,0004.80,0003.18,0002.28,0000.84,0000.85,0000.63,0043.11,0039.87,0032.42,17.0,23.6,,00.0,0671.3,30.9
2021-10-18T06:47:00Z,00000200,01000000,0003.84,0003.24,0001.80,0000.98,0000.71,0000.33,0037.27,0034.76,0027.79,17.0,23.7,,00.0,0671.3,30.9
2021-10-18T06:48:00Z,00000200,01000000,0005.09,0003.00,0002.10,0000.69,0001.00,0000.30,0039.62,0036.64,0029.73,17.1,23.7,,00.0,0671.3,30.9
2021-10-18T06:49:00Z,00000200,01000000,0004.00,0002.74,0001.89,0000.80,0000.93,-000.04,0031.90,0030.50,0024.47,17.1,23.7,,00.0,0671.3,30.9
2021-10-18T06:50:00Z,00000200,01000000,0002.67,0001.83,0001.17,0000.56,0000.27,0000.19,0017.03,0015.57,0012.60,17.1,23.7,,00.0,0671.4,30.9
2021-10-18T06:51:00Z,00000200,01000000,0001.58,0001.43,0000.90,0000.07,0000.61,0000.19,0009.61,0008.65,0007.12,17.1,23.7,,00.0,0671.4,30.9
2021-10-18T06:52:00Z,00000200,01000000,0002.26,0001.32,0001.25,0000.21,0000.58,0000.01,0011.23,0010.83,0008.46,17.1,23.7,,00.0,0671.4,30.9
2021-10-18T06:53:00Z,00000200,01000000,0002.56,0001.69,0001.25,0000.86,0000.50,0000.14,0011.75,0010.98,0008.84,17.1,23.7,,00.0,0671.4,30.9
2021-10-18T06:54:00Z,00000200,01000000,0003.89,0003.09,0001.88,0000.19,0000.76,0000.23,0032.71,0029.87,0024.13,17.2,23.7,,00.0,0671.4,30.9
2021-10-18T06:55:00Z,00000200,01000000,0004.72,0003.49,0002.19,0001.67,0000.85,0000.34,0046.31,0043.36,0035.09,17.2,23.7,,00.0,0671.4,30.9
2021-10-18T06:56:00Z,00000200,01000000,0005.42,0003.44,0001.84,0000.59,0001.01,0000.18,0039.68,0036.60,0029.59,17.2,23.7,,00.0,0671.4,30.9
2021-10-18T06:57:00Z,00000200,41000000,,,,,,,0012.71,0012.02,0010.19,17.3,23.8,,00.0,0671.4,30.9
2021-10-18T06:58:00Z,00000200,61000000,,,,,,,0000.49,0000.47,0000.47,16.9,23.9,,00.0,0670.5,30.9
2021-10-18T06:59:00Z,00000200,21000000,,,,,,,0000.19,0000.41,-000.11,16.8,24.0,,00.0,0670.4,30.9
